Location: Arthez
(43.0833°N, 0.2500°W)
Time: 01:43:56
(UTC+00:00)

NOSS 3-1 (A) - Pass Details

Date: 01 June 2022
Orbit: 711 x 1501 km, 63.4° (Epoch: 21 May)

Event Time Altitude Azimuth Distance (km) Brightness Sun altitude
Rises 00:41:01 0° 313° (NW) 4,095 7.2 -24.2°
Reaches altitude 10° 00:44:06 10° 302° (WNW) 3,245 6.4 -24.1°
Maximum altitude 00:50:28 27° 249° (WSW) 2,398 5.2 -23.8°
Enters shadow 00:51:27 26° 239° (WSW) 2,448 5.2 -23.8°
